Wind_Speed
20 20 21 22 24 25 26 29 30 31 30 29 28 25 21 20 22 21 10 14 13 14 13 14 16 17 25 24 20 26 30 31 19 32 31 42 47 33 20 23 33 28 26
18 18 21 23 26 29 30 30 32 31 33 33 31 31 29 29 29 28 28 27 28 26 23 20 18 11 11 16 25 20 23 22 24 15 24 23 27 32 33 30 33 23 24
18 19 19 22 26 29 31 33 33 33 32 36 34 35 35 33 32 32 31 31 33 31 32 30 31 27 21 16 13 12 10 17 21 18 17 18 21 22 23 27 27 18 25
21 19 20 23 26 28 29 31 32 34 36 36 37 36 40 39 36 35 34 33 34 35 33 37 35 36 34 26 21 19 13 11 9 18 17 17 15 13 16 16 12 16 18
20 20 20 21 23 26 29 29 31 34 36 35 38 41 39 42 42 37 35 36 34 35 37 35 37 31 35 38 35 35 24 17 17 16 8 9 10 12 9 12 15 16 17
20 20 19 22 27 26 27 28 31 32 34 37 39 40 41 41 38 38 38 37 39 37 36 36 36 36 33 35 33 43 47 34 28 21 18 16 19 21 20 17 13 8 8
17 18 20 22 26 26 24 28 29 31 33 36 38 39 41 39 34 34 35 38 40 40 37 35 35 36 34 32 34 37 41 41 39 32 26 27 21 26 20 15 11 7 6
13 15 20 25 26 25 26 26 26 26 29 31 34 34 37 40 34 29 29 33 35 37 39 39 39 39 37 35 36 41 40 39 38 33 29 27 28 31 23 14 13 12 4
14 14 16 19 23 25 24 23 22 23 26 28 30 33 33 39 38 33 28 28 30 34 36 42 39 40 38 35 38 32 31 35 30 28 29 30 31 31 34 30 33 17 5
14 13 15 17 19 20 20 21 20 21 23 25 30 32 34 34 38 38 33 27 30 30 32 34 37 38 37 37 37 31 29 28 27 31 32 32 34 34 34 35 29 18 13
16 15 18 18 20 19 20 20 19 21 23 26 29 31 34 37 37 37 36 33 27 27 30 31 34 34 36 35 34 33 26 21 25 26 27 29 29 30 31 27 27 23 18
18 22 23 23 22 23 20 21 21 19 24 24 25 26 29 30 34 35 34 33 28 28 27 28 29 30 31 35 33 29 27 23 22 22 24 24 25 27 27 23 19 15 15
14 16 19 23 24 21 20 19 21 23 23 23 24 24 26 27 27 29 31 29 30 28 26 24 26 29 30 32 33 33 32 28 26 26 24 23 22 20 21 22 19 14 10
14 15 17 18 19 21 20 20 21 22 22 22 22 24 24 26 27 26 25 24 25 23 23 27 26 26 31 29 33 33 31 27 25 24 22 21 20 22 23 23 22 23 15
13 12 12 14 13 14 17 18 19 22 20 19 21 22 22 24 25 24 25 26 22 21 20 22 25 27 27 27 27 29 29 28 27 25 24 24 23 22 21 21 20 19 18
11 10 9 9 10 11 12 14 17 17 19 19 20 19 18 19 19 19 20 22 22 19 23 25 25 25 25 25 25 25 25 25 23 22 21 21 20 20 21 20 20 20 19
10 10 9 8 8 8 9 11 12 12 14 16 17 17 17 16 17 16 16 17 21 20 22 22 21 21 20 21 21 22 22 21 19 19 19 19 19 19 19 19 18 18 18
13 12 9 7 6 7 7 9 9 9 10 13 14 14 15 16 16 17 16 14 18 19 18 18 18 17 17 17 17 18 18 19 20 20 20 19 19 17 17 17 17 19 20
11 10 8 8 7 7 7 7 7 7 8 9 10 11 13 12 14 16 18 17 16 17 17 16 15 15 15 15 15 15 15 17 17 18 19 19 20 18 18 18 18 18 18
10 9 8 7 6 5 6 6 6 7 7 8 9 11 11 12 14 14 15 15 15 15 15 15 16 14 14 14 14 14 15 15 15 16 17 19 19 18 19 20 19 20 19
9 9 7 6 5 4 5 5 6 6 6 6 8 9 13 10 11 12 13 14 14 14 15 15 15 14 14 15 15 14 14 14 14 14 16 17 18 19 18 19 20 19 19
9 8 6 5 4 4 4 4 5 5 6 6 6 7 10 9 10 11 11 12 12 13 13 14 14 13 14 15 15 15 15 14 14 14 15 16 18 18 18 19 20 20 19
9 7 6 4 4 4 3 4 5 5 5 6 7 8 8 8 9 10 11 12 13 14 14 14 14 14 14 15 15 13 14 15 15 13 13 15 17 18 17 18 19 19 20
9 7 5 5 4 3 3 4 4 4 5 5 7 7 8 8 8 9 11 14 15 15 16 18 17 16 19 17 16 13 13 15 16 13 12 13 15 16 16 17 18 19 19
9 7 6 5 4 3 3 2 2 3 4 6 6 8 7 7 7 10 13 14 17 18 19 18 17 18 17 19 16 15 16 17 14 10 10 11 13 14 15 16 18 19 19
8 7 6 4 4 3 2 1 2 3 4 6 7 8 7 7 8 12 14 14 19 20 18 18 19 19 18 16 15 16 19 17 12 6 7 9 10 12 14 15 17 18 18
Wind_Direction
8 8 9 9 11 13 13 10 8 8 9 14 15 11 11 16 27 40 38 254 250 258 264 271 267 273 263 275 262 234 239 228 238 243 230 237 246 246 241 240 251 252 270
12 14 16 21 26 19 15 11 12 11 18 20 22 24 25 30 38 44 48 49 52 43 34 34 25 354 345 263 270 259 233 213 223 222 210 218 236 248 244 238 239 239 263
25 22 21 24 30 24 20 17 17 18 22 25 28 31 30 33 40 46 50 51 51 48 42 41 35 33 24 12 7 1 298 226 216 229 237 231 230 233 228 232 235 242 251
41 31 25 28 30 28 24 23 22 25 24 25 30 35 37 36 38 43 48 51 53 50 47 45 43 41 37 34 28 18 351 347 255 219 231 237 231 231 236 242 240 239 250
45 39 28 32 36 36 31 30 26 30 28 30 33 35 36 37 36 39 46 49 49 51 49 46 45 47 49 48 45 37 34 29 19 10 360 321 302 302 321 312 270 266 255
49 42 40 43 46 37 35 33 32 33 32 33 36 36 37 36 36 40 45 44 45 44 45 45 42 41 48 49 48 53 49 47 43 44 35 26 15 356 345 336 331 316 233
50 49 49 50 51 44 41 39 34 32 33 34 34 37 38 36 37 41 45 47 46 42 40 41 42 38 45 48 50 53 50 49 50 47 44 32 23 0 354 339 350 328 1
54 49 53 57 55 50 48 42 41 42 41 39 38 39 41 37 36 41 47 51 51 48 42 37 39 36 37 45 49 52 50 46 44 45 45 38 32 26 27 5 335 312 93
55 52 50 53 54 51 46 45 45 47 47 45 44 41 41 38 35 37 44 47 48 47 46 43 41 39 34 37 46 43 43 42 49 46 45 40 43 36 38 37 18 357 38
62 58 60 57 56 52 49 49 48 52 53 50 48 45 42 41 37 36 40 44 44 42 42 41 42 42 40 39 42 35 36 27 27 37 42 40 36 43 44 47 24 16 10
80 70 69 64 60 59 55 51 53 52 53 49 48 43 42 39 39 39 39 44 43 43 40 36 35 39 42 42 45 41 37 32 30 33 32 29 27 23 34 38 45 24 22
85 77 72 70 67 66 62 54 52 53 53 50 49 49 44 41 40 40 42 44 47 48 43 39 37 39 43 42 42 40 41 43 39 39 36 28 22 16 15 22 36 34 30
95 88 80 74 70 63 57 58 53 50 52 50 47 46 43 41 39 40 43 46 51 54 48 45 44 44 44 43 38 38 38 35 32 33 26 21 16 10 11 16 22 21 14
100 89 80 71 68 62 56 54 54 50 50 50 48 46 43 40 37 35 37 39 43 47 45 45 44 41 41 38 35 33 34 31 30 26 19 15 14 14 15 13 10 5 4
100 90 82 75 69 66 65 58 59 56 56 55 53 49 45 42 37 38 39 40 40 43 47 45 42 38 36 34 33 30 27 24 24 20 17 13 11 10 10 9 9 6 7
110 101 95 86 77 71 71 70 64 64 59 57 56 53 50 46 38 36 39 41 39 41 41 40 38 36 34 30 28 26 26 24 20 17 16 13 9 7 3 4 5 3 359
127 120 108 90 80 72 67 65 63 56 60 57 49 47 41 33 29 27 29 36 36 35 38 34 34 32 30 29 27 24 22 20 17 18 16 12 7 4 3 1 360 356 351
123 114 109 103 93 82 76 67 59 51 47 44 46 44 39 35 35 31 26 31 27 28 27 23 22 20 20 20 20 19 18 16 16 15 12 10 6 1 360 359 355 350 344
131 129 120 108 103 94 81 70 63 57 52 49 40 33 29 32 33 34 33 36 26 21 16 12 5 2 2 2 3 6 6 7 9 10 9 6 2 360 355 352 347 345 341
135 128 128 124 114 96 83 75 64 59 56 47 37 24 16 19 24 24 26 26 24 17 10 5 2 357 350 348 345 345 350 355 359 3 4 2 360 358 352 348 346 340 338
153 143 139 128 110 94 83 74 69 64 56 45 40 28 25 27 20 20 19 19 17 11 4 360 354 350 348 346 345 338 331 335 341 349 354 357 357 353 350 346 342 339 335
157 151 148 130 117 100 86 78 70 64 54 45 36 18 18 23 18 15 13 12 10 5 358 351 347 343 341 340 334 330 328 324 328 334 343 349 350 348 345 343 342 339 336
162 159 153 138 132 120 98 82 70 57 47 37 26 16 12 8 8 8 4 3 0 356 351 347 342 338 335 334 329 322 319 322 321 314 325 337 341 341 340 338 338 337 335
171 171 166 157 152 131 105 93 72 53 40 23 16 8 5 1 358 359 360 355 351 346 343 340 336 330 327 327 329 323 317 315 316 300 308 325 333 336 336 336 337 335 334
177 178 173 169 161 137 122 104 62 35 16 8 6 2 359 358 355 357 353 348 344 342 341 339 335 330 328 329 332 329 328 323 313 291 299 317 325 334 334 335 336 335 335
180 179 175 171 159 153 150 100 33 3 355 357 357 356 355 358 355 352 348 344 342 341 338 335 335 336 336 337 336 339 336 327 307 268 296 319 330 337 335 334 337 338 338
Height
811 805 799 794 789 781 775 768 762 755 747 740 732 724 718 712 705 700 698 698 699 699 699 697 699 699 698 698 696 697 700 703 703 709 713 711 715 714 709 714 719 721 721
813 808 803 797 790 784 778 773 766 758 751 743 735 728 721 714 708 704 702 700 699 698 697 695 695 694 696 696 696 692 691 691 699 696 702 703 704 706 711 715 714 709 715
815 809 805 800 793 788 783 777 770 762 755 748 740 733 727 721 717 712 709 706 704 704 704 702 700 696 697 697 692 691 690 691 693 696 697 699 701 706 707 709 707 700 710
816 813 809 802 797 792 787 782 775 769 760 754 747 741 735 730 725 722 718 716 713 712 711 709 708 707 705 701 699 697 695 693 692 691 693 694 695 698 702 700 698 697 701
819 816 812 807 801 796 791 787 782 775 770 764 756 748 743 739 736 731 729 726 724 720 718 717 718 718 714 711 708 704 699 697 696 696 690 691 694 695 696 695 692 694 699
822 819 816 811 806 802 797 793 788 783 778 772 765 761 755 752 750 744 738 734 732 729 727 727 726 723 719 719 721 712 709 705 706 707 709 709 711 710 702 702 699 694 695
826 824 820 816 811 807 804 799 795 790 785 780 775 772 768 766 763 757 751 744 741 741 741 738 735 732 728 725 721 717 716 716 717 717 718 720 716 716 709 705 704 704 702
830 827 824 820 816 813 809 807 804 800 796 792 788 784 781 778 774 769 764 759 756 754 751 746 741 740 737 731 726 721 723 724 725 729 730 730 725 718 712 712 709 708 700
832 830 827 824 821 817 814 813 811 808 804 801 797 794 789 787 783 776 771 768 766 763 760 759 754 748 744 738 731 733 733 733 735 736 733 731 727 725 718 712 711 712 704
835 833 831 827 824 821 820 817 816 813 810 807 803 800 798 794 790 784 777 775 772 768 767 765 763 759 754 747 743 743 741 744 742 736 734 733 732 726 723 722 723 723 717
836 835 832 830 827 825 823 822 821 818 814 811 807 806 803 801 797 792 787 781 781 779 776 773 772 769 763 760 757 756 755 752 748 745 742 739 739 737 731 730 726 732 728
839 837 834 832 831 829 827 826 825 822 819 818 816 814 812 809 805 801 795 792 789 786 786 785 783 778 773 771 768 767 764 762 760 757 754 753 749 746 742 737 732 738 738
840 839 837 836 834 832 832 830 828 826 824 823 821 820 818 815 813 809 805 801 797 794 794 793 789 784 780 776 775 772 768 767 765 762 762 760 757 756 751 744 741 741 741
841 840 839 838 837 835 835 834 831 830 829 828 827 825 824 822 819 817 813 809 805 802 799 796 793 790 787 785 781 778 776 775 773 771 769 766 762 758 754 750 745 743 738
842 842 843 841 840 839 839 838 836 836 834 833 831 830 829 827 827 825 820 816 812 810 807 803 799 797 795 793 790 787 784 782 778 776 773 769 767 764 760 757 754 749 744
844 845 846 845 845 844 843 841 840 839 838 836 835 834 834 833 831 829 826 821 816 814 811 808 806 805 803 801 798 796 793 790 788 785 782 779 776 772 767 762 758 754 750
845 846 846 847 847 846 845 843 842 842 840 839 837 837 836 835 833 831 828 823 820 818 815 815 813 811 810 808 806 804 800 798 796 792 788 784 780 775 771 767 764 762 757
845 846 847 848 848 847 847 845 845 844 843 841 840 840 839 836 835 832 828 825 823 820 820 819 817 816 814 813 811 808 806 803 799 795 791 787 784 780 776 772 768 764 759
845 847 848 848 848 848 847 846 846 846 845 844 842 841 840 838 835 833 830 827 827 825 823 821 820 818 816 814 813 810 808 805 802 798 794 791 786 782 778 773 769 765 760
846 847 848 849 850 849 848 847 847 846 845 845 844 843 841 839 837 836 833 831 829 828 826 824 822 819 817 815 813 810 808 805 803 799 796 792 787 783 779 774 770 765 759
847 847 849 850 850 849 848 848 847 847 847 846 844 843 841 841 840 838 836 833 831 829 827 825 823 821 818 815 812 810 807 804 802 799 795 792 788 784 780 776 771 766 761
846 847 849 849 849 849 849 848 847 847 847 846 845 844 842 842 841 839 837 834 832 829 827 825 823 821 818 815 812 809 806 803 800 797 794 791 787 784 780 775 771 766 761
844 846 848 848 849 849 849 848 847 847 846 846 845 843 843 842 840 839 837 833 831 829 826 823 821 818 816 813 810 808 805 802 798 795 792 790 786 783 779 775 771 766 761
844 845 846 847 848 847 847 847 847 847 846 846 844 843 842 841 840 838 835 832 830 827 824 821 818 816 812 809 807 804 802 798 795 793 790 788 785 781 778 774 770 765 760
843 844 845 846 846 846 846 847 846 846 846 844 843 842 841 841 839 837 834 831 828 825 821 818 815 812 808 805 802 800 797 794 791 789 788 786 783 780 777 773 769 764 759
842 843 844 845 845 845 846 845 845 845 844 843 842 841 839 838 836 834 832 829 825 822 819 815 811 808 804 801 799 796 793 789 786 785 785 784 782 779 775 772 768 764 759